Weather History for KANJ - October, 2011

Change the Weather History Date:

Sunday, October 2, 2011

  Actual Average Record
Temperature  
Mean Temperature 48 °F 51 °F  
Max Temperature 62 °F 60 °F 81 °F (1922)
Min Temperature 33 °F 42 °F 25 °F (1974)
Degree Days  
Heating Degree Days 17 14  
Month to date heating degree days 38 28  
Since 1 July heating degree days 279 429  
Cooling Degree Days 0 0  
Month to date cooling degree days 0 0  
Year to date cooling degree days 252 195  
Moisture  
Dew Point 37 °F    
Average Humidity 68    
Maximum Humidity 96    
Minimum Humidity 39    
Precipitation  
Precipitation 0.00 in 0.13 in 0.66 in (2014)
Month to date precipitation 0.00 0.26  
Year to date precipitation 28.16 23.25  
Snow  
Snow 0.00 in 0.00 in 0.50 in (1993)
Month to date snowfall 0.0 0.0  
Since 1 July snowfall 0.0 T  
Snow Depth 0.00 in    
Sea Level Pressure  
Sea Level Pressure 30.19 in    
Wind  
Wind Speed 4 mph (NW)    
Max Wind Speed 14 mph    
Max Gust Speed 18 mph    
Visibility 10 miles    
Events      
T = Trace of Precipitation, MM = Missing Value Source: NWS Daily Summary

Daily Weather History Graph

Daily Weather History Graph

Search for Another Location

Airport or City:

Trip Planner

Search our weather history database for the weather conditions in past years. The results will help you decide how hot, cold, wet, or windy it might be!

Date:

Astronomy

Oct. 02, 2011 Rise Set
Actual Time 7:36 AM EDT 7:15 PM EDT
Civil Twilight 7:06 AM EDT 7:45 PM EDT
Nautical Twilight 6:31 AM EDT 8:20 PM EDT
Astronomical Twilight 5:56 AM EDT 8:56 PM EDT
Moon 2:03 PM EDT (10/2) 10:53 PM EDT (10/2)
Length of Visible Light 12h 38m
Length of Day
11h 38m
Waxing Crescent, 34% of the Moon is Illuminated
Oct 2
Waxing Crescent
Oct 3
First Quarter
Oct 11
Full
Oct 19
Last Quarter
Oct 26
New

Hourly Weather History & Observations

Time (EDT) Temp. Windchill Dew Point Humidity Pressure Visibility Wind Dir Wind Speed Gust Speed Precip Events Conditions
12:55 AM 39.0 °F 35.7 °F 34.0 °F 82% 30.26 in 10.0 mi North 4.6 mph - N/A   Clear
1:55 AM 36.0 °F - 32.0 °F 86% 30.26 in 10.0 mi Calm Calm - N/A   Clear
2:55 AM 34.0 °F - 30.9 °F 89% 30.26 in 10.0 mi Calm Calm - N/A   Clear
3:55 AM 33.1 °F - 30.0 °F 89% 30.25 in 10.0 mi Calm Calm - N/A   Clear
4:55 AM 33.1 °F - 28.9 °F 85% 30.25 in 10.0 mi Calm Calm - N/A   Clear
5:55 AM 33.1 °F - 28.9 °F 85% 30.25 in 10.0 mi Calm Calm - N/A   Clear
6:55 AM 34.0 °F - 32.0 °F 92% 30.25 in 10.0 mi Calm Calm - N/A   Clear
7:55 AM 33.1 °F - 30.0 °F 89% 30.25 in 10.0 mi Calm Calm - N/A   Clear
8:55 AM 37.9 °F - 34.0 °F 86% 30.25 in 10.0 mi Calm Calm - N/A   Clear
9:55 AM 45.0 °F - 37.0 °F 74% 30.22 in 10.0 mi Calm Calm - N/A   Clear
10:55 AM 48.9 °F - 36.0 °F 61% 30.22 in 10.0 mi Variable 3.5 mph - N/A   Clear
11:55 AM 55.0 °F - 41.0 °F 59% 30.19 in 10.0 mi Variable 3.5 mph - N/A   Clear
12:55 PM 57.0 °F - 37.9 °F 49% 30.17 in 10.0 mi Variable 4.6 mph - N/A   Clear
1:55 PM 61.0 °F - 37.9 °F 42% 30.14 in 10.0 mi West 6.9 mph - N/A   Clear
2:55 PM 61.0 °F - 35.1 °F 38% 30.13 in 10.0 mi WNW 8.1 mph - N/A   Clear
3:55 PM 61.0 °F - 36.0 °F 39% 30.14 in 10.0 mi WNW 8.1 mph - N/A   Clear
4:55 PM 59.0 °F - 39.0 °F 48% 30.13 in 10.0 mi WNW 6.9 mph - N/A   Clear
5:55 PM 57.0 °F - 42.1 °F 57% 30.13 in 10.0 mi NW 11.5 mph - N/A   Clear
6:55 PM 55.0 °F - 44.1 °F 67% 30.13 in 10.0 mi NW 10.4 mph - N/A   Clear
7:55 PM 53.1 °F - 45.0 °F 74% 30.14 in 10.0 mi NW 8.1 mph - N/A   Clear
8:55 PM 52.0 °F - 46.0 °F 80% 30.15 in 10.0 mi NW 9.2 mph - N/A   Clear
9:55 PM 52.0 °F - 45.0 °F 77% 30.15 in 10.0 mi NNW 4.6 mph - N/A   Clear
10:55 PM 50.0 °F - 45.0 °F 83% 30.16 in 10.0 mi NNW 3.5 mph - N/A   Clear
11:55 PM 50.0 °F - 44.1 °F 80% 30.15 in 10.0 mi NW 3.5 mph - N/A   Clear